Regional Weather Roundup
Issued by NWS

Home | Current Version | Previous Version | Graphics & Text | Print | Product List | Glossary On
Versions: 1 2 3 4 5 6 7 8 9 10 11 12 13 14 15 16 17 18 19 20 21 22 23 24 25 26 27 28 29 30 31 32 33 34 35 36 37 38 39 40 41 42 43 44 45 46 47 48 49 50
000
ASUS45 KTFX 200204
RWRMT
MONTANA HOURLY WEATHER ROUNDUP
NATIONAL WEATHER SERVICE GREAT FALLS MT
804 PM MDT SUN OCT 19 2014

NOTE: "FAIR" INDICATES FEW OR NO CLOUDS BELOW 12000 FEET WITH NO
SIGNIFICANT WEATHER AND/OR OBSTRUCTIONS TO VISIBILITY.

* THESE STATIONS ARE NOT UNDER NWS QUALITY CONTROL. THEY DO NOT
   REPORT WEATHER SUCH AS PRECIPITATION OR FOG.

MTZ001>007-043-200300-
WEST OF THE DIVIDE
CITY           SKY/WX    TMP DP  RH WIND       PRES   REMARKS
KALISPELL      PTCLDY    48  43  83 CALM      29.91S
MISSOULA       CLEAR     52  39  61 CALM      29.92S
BUTTE          CLEAR     46  32  58 E8        30.03S
MULLAN PASS    PTCLDY    52  36  55 S7        29.99F
* ESSEX        N/A       45  41  86 N/A        N/A
* LINCOLN      N/A       54  37  53 SE2        N/A
* LOOKOUT PASS N/A       47  42  83 S2         N/A
* POLSON       N/A       50  43  77 N/A        N/A
* RONAN APT    CLEAR     46  39  77 N/A        N/A
* SEELEY LAKE  N/A       51  37  59 NE3        N/A
* THOMP F APT  PTCLDY    48  25  41 NE3        N/A
$$

MTZ008-052>055-200300-
SOUTHWEST MONTANA
CITY           SKY/WX    TMP DP  RH WIND       PRES   REMARKS
BOZEMAN        CLEAR     45  37  74 S5        30.01R
DILLON         CLEAR     55  27  34 SE10      30.01R
W YELLOWSTONE  CLEAR     41  23  49 SW5       30.16R
* THREE FORKS  CLEAR     46  43  89 N/A        N/A
* BOULDER HILL N/A       54  28  37 SW4        N/A
* MONIDA PASS  N/A       48  27  44 SE11       N/A
* RAYNOLDS PAS N/A       45  27  49 S4         N/A
* WHITEHALL    N/A       59  35  41 N6         N/A
* WISE RIVER   N/A       50  29  44 SW3        N/A
$$

MTZ009>010-012-014-046-048-049-054-200300-
EAST SLOPES AND CENTRAL MONTANA
CITY           SKY/WX    TMP DP  RH WIND       PRES   REMARKS
CUT BANK       CLEAR     55  28  35 SW10      29.89S
GREAT FALLS    CLEAR     54  34  47 SW7       29.90S
HELENA         CLEAR     55  39  55 W3        29.94S
MALMSTROM AFB  CLEAR     55  34  45 S9        29.91S
* CONRAD       CLEAR     50  30  46 N/A        N/A
* DEARBORN     N/A       60  36  41 E1         N/A
* EAST GLACIER N/A       57  32  39 W14G23     N/A
* MONARCH      N/A       48  24  39 S8         N/A
* PENDROY      N/A       53  29  40 NW9        N/A
* ROGERS PASS  N/A       58  31  36 E3G9       N/A
* SAINT MARY   N/A       58  30  35 S7G19      N/A
* SWEET GRASS  N/A       61  32  34 SW17       N/A
$$

MTZ011-013-016-021-035-040-045-047-050-051-200300-
NORTH CENTRAL MONTANA
CITY           SKY/WX    TMP DP  RH WIND       PRES   REMARKS
HAVRE          CLEAR     52  43  72 E6        29.87S
LEWISTOWN      CLEAR     52  36  55 SE9       29.96S
* CHINOOK      CLEAR     57  43  60 E7        29.89S
* FORT BENTON  CLEAR     63  39  41 SE3       29.89R
* CHESTER      N/A       58  38  47 SE6G12     N/A
* DENTON       N/A       58  35  42 S11        N/A
* GEYSER       N/A       47  35  63 S9         N/A
* JUDITH GAP   N/A       50  36  59 SW4G9      N/A
* LOMA         N/A       62  39  43 E6         N/A
$$

MTZ017>020-022>027-061-062-200300-
NORTHEAST MONTANA
CITY           SKY/WX    TMP DP  RH WIND       PRES   REMARKS
GLASGOW        CLEAR     54  39  57 E14       29.94S
GLENDIVE       CLEAR     55  37  51 SE6       30.01S
JORDAN         CLEAR     54  37  53 SE5       29.96R
SIDNEY         CLEAR     46  37  71 CALM      30.01S
WOLF POINT     CLEAR     48  37  66 NE3       29.97S
* BEAVER HILL  N/A       54  37  53 SE9        N/A
* CIRCLE       N/A       56  41  57 N/A        N/A
* LINDSAY DVD  N/A       51  37  59 SE1        N/A
* NAVAJO       N/A       50  37  61 SW8        N/A
$$

MTZ028>042-056>058-200300-
SOUTHCENTRAL AND SOUTHEAST MONTANA
CITY           SKY/WX    TMP DP  RH WIND       PRES   REMARKS
BAKER          CLEAR     46  34  63 CALM      30.04S
BILLINGS       CLEAR     64  34  33 S5        29.99S
LIVINGSTON     CLEAR     55  32  42 W3        30.00R
MILES CITY     CLEAR     61  37  41 E6        29.98F
* LAUREL APT   CLEAR     61  30  31 N/A        N/A
* ROUNDUP APT  CLEAR     63  32  31 N/A        N/A
* ALZADA       N/A       60  37  43 NE7        N/A
* HYSHAM       N/A       60  31  33 NE1        N/A
* LAME DEER    N/A       61  35  38 SE6        N/A
* REED POINT   N/A       53  31  43 N/A        N/A
* ROSCOE HILL  N/A       55  25  31 SW6        N/A
$$

REGIONAL REPORTS...DAKOTAS
CITY           SKY/WX    TMP DP  RH WIND       PRES   REMARKS
WILLISTON      CLEAR     48  37  66 CALM      29.99S
DICKINSON      CLEAR     48  36  63 SE6       30.02R
BEACH          N/A       45  37  74 S6        30.04R
CROSBY         CLEAR     45  39  80 S8        29.99S
TIOGA          CLEAR     41  32  70 SW3       30.03S
BISMARCK       CLEAR     54  39  57 NW3       30.01R
GRAND FORKS    CLEAR     46  37  71 W6        29.88R
FARGO          CLEAR     48  39  71 SW5       29.90R
RAPID CITY     CLEAR     50  39  66 N6        30.07R
$$

REGIONAL REPORTS...WYOMING/IDAHO/WASHINGTON
CITY           SKY/WX    TMP DP  RH WIND       PRES   REMARKS
GILLETTE       CLEAR     46  36  68 CALM      30.09R
SHERIDAN       CLEAR     48  34  59 S6        30.03S
CODY           CLEAR    N/A N/A N/A CALM      30.05S
YELLOWSTONE LA PTCLDY    34  23  64 NW6       30.23S WCI  29
MULLAN PASS    PTCLDY    52  36  55 S7        29.99S
SAND POINT     MOCLDY    50  50 100 CALM      29.84F
SPOKANE        PTCLDY    63  48  58 NE8       29.81S

$$




USA.gov is the U.S. government's official web portal to all federal, state and local government web resources and services.